RH
17 17 16 16 15 15 15 14 15 15 17 22 27 29 34 43 43 49 57 56 63 76 89 97 101 106 104 101 101 98 98 97 94 89 94 99 97 99 104 102 96 92 91 87 83 81 82 82 78 77 78 80 81 81 81 81 82 83 83 82 81 80 79 78 77 76 75 73 71 69 66 64 63 62 62 61 60 59 57 55 54 55 56 55 54 53 50 47 42 40 40 42 45 45 45 44 43
18 18 18 17 17 16 15 16 16 17 17 16 16 14 15 17 17 19 22 23 28 34 47 62 76 94 103 100 95 92 91 84 76 71 77 88 88 90 97 102 100 91 86 85 84 82 81 83 81 77 76 78 81 83 83 84 85 87 90 91 91 92 92 91 90 89 87 87 85 84 81 78 76 75 74 74 72 69 66 62 59 57 57 58 58 58 56 54 51 48 45 44 45 46 47 46 43
19 18 18 18 18 18 17 17 17 17 18 20 18 15 16 16 15 14 13 14 15 16 20 27 37 54 68 75 74 74 75 66 55 48 50 60 66 73 81 89 95 93 90 92 96 98 96 95 95 90 87 86 85 85 85 86 85 84 84 85 86 87 90 92 92 92 92 91 89 89 88 87 86 83 81 81 80 78 76 73 68 64 59 58 57 55 54 52 51 50 48 46 45 46 47 47 45
21 20 19 19 19 20 19 19 18 17 17 20 19 17 17 17 17 18 17 16 14 14 14 15 17 21 26 34 39 39 42 40 36 30 27 33 41 51 63 72 78 82 82 83 86 90 93 93 91 89 93 97 98 98 98 98 96 95 93 91 89 88 88 89 91 92 92 92 90 88 86 85 84 83 81 79 79 78 78 78 77 74 70 66 63 59 56 52 50 49 47 45 43 42 43 44 42
21 21 21 20 20 20 19 20 20 19 19 19 19 17 17 17 18 20 21 21 21 20 17 16 15 15 15 16 18 19 20 21 21 21 19 21 24 30 40 51 58 64 68 68 65 65 68 68 63 61 69 80 87 91 93 91 89 90 92 94 95 97 98 97 98 99 100 101 100 96 91 86 82 80 79 77 76 75 73 73 74 74 75 73 70 67 63 58 54 52 49 46 44 41 40 38 37
22 22 22 22 23 22 21 22 21 20 19 19 19 18 17 18 19 19 21 22 24 23 20 19 18 18 18 17 17 17 17 17 18 18 19 19 19 20 22 27 34 40 45 49 49 50 51 48 41 38 41 49 55 60 63 64 62 61 63 66 69 74 79 83 86 88 90 92 94 94 92 88 84 80 76 74 71 69 67 64 62 61 62 63 64 64 63 61 58 55 52 49 47 43 41 38 35
24 24 23 22 23 24 25 25 24 23 21 21 20 19 18 19 19 19 19 20 21 20 19 18 19 20 20 21 21 20 19 20 20 21 22 23 22 22 22 21 22 24 26 30 32 35 36 34 29 26 27 30 33 35 37 39 40 40 41 42 43 45 48 52 56 60 63 66 69 71 74 74 74 73 70 68 65 63 60 57 53 50 48 47 48 50 52 53 53 52 51 49 46 44 41 40 37
25 26 25 25 26 26 26 27 27 25 25 25 23 23 22 22 23 22 21 20 18 18 18 18 18 19 20 22 22 22 21 21 22 24 25 26 26 26 26 26 25 25 25 25 26 27 28 28 26 25 24 25 26 26 26 27 27 28 29 30 30 31 32 33 35 37 39 41 43 45 47 49 50 52 53 53 53 51 50 48 46 43 40 38 37 37 37 38 40 41 41 41 40 39 38 36 35
27 29 29 30 32 32 32 31 30 29 29 29 28 27 28 28 28 27 26 24 23 23 22 22 22 22 23 24 25 24 24 24 24 24 25 25 26 26 26 27 27 27 27 27 28 29 30 30 30 29 28 28 28 27 26 26 26 26 26 26 26 27 27 27 28 28 28 28 29 30 30 31 33 33 35 35 36 36 36 36 35 34 33 32 31 29 29 29 29 30 30 31 31 31 31 30 30
33 35 36 37 38 39 39 38 37 36 36 35 35 35 36 36 35 35 34 33 32 30 29 28 28 28 29 29 30 29 28 29 28 27 27 27 28 29 29 29 30 29 29 29 29 30 32 33 32 31 30 31 31 30 29 28 27 27 26 26 26 26 26 26 26 26 25 25 25 25 25 25 26 26 27 27 27 27 28 28 28 28 27 27 27 26 26 25 25 25 25 25 25 25 25 25 25
42 43 45 46 45 46 47 47 45 44 44 43 43 44 44 43 42 41 41 41 39 38 37 36 36 36 35 35 34 33 33 33 34 34 33 33 34 34 35 34 34 34 34 33 33 33 34 34 35 34 34 34 34 34 33 32 31 31 30 29 29 28 28 28 27 27 26 26 26 26 26 26 26 26 26 27 27 27 27 27 27 27 28 28 28 28 28 28 28 27 27 26 26 25 25 24 23
51 51 51 51 50 50 51 52 51 51 50 49 50 51 48 47 46 45 45 45 44 43 43 43 42 42 41 40 39 37 38 40 40 39 38 38 38 38 37 38 37 37 37 36 36 35 36 37 37 37 37 37 38 38 38 37 37 36 36 35 34 33 32 31 30 30 30 29 29 29 29 29 29 29 30 30 30 30 30 30 31 31 31 31 31 31 31 31 31 31 31 30 30 29 28 27 26
53 52 52 50 49 49 50 50 51 51 49 49 51 50 48 47 47 47 47 47 47 46 45 46 45 45 45 44 44 41 42 45 43 41 41 40 40 40 39 38 38 38 38 38 38 37 38 38 38 39 39 40 40 41 41 41 42 41 42 41 40 40 39 38 36 35 35 34 33 32 32 32 32 32 32 32 32 32 33 33 33 33 33 34 34 34 34 34 34 34 34 33 33 32 32 30 29
52 51 50 49 49 49 49 49 49 49 46 47 48 46 46 46 46 47 47 47 47 47 47 47 46 46 46 46 46 45 44 45 45 43 43 43 42 42 40 40 39 39 39 39 39 39 39 39 40 40 40 41 41 42 43 43 44 45 46 47 47 47 46 45 44 43 42 41 39 39 38 37 37 37 37 37 37 36 36 36 36 37 37 37 37 37 37 37 37 36 36 36 35 34 33 32 31
50 49 49 48 48 48 49 49 49 48 47 46 46 45 46 45 46 46 47 47 47 46 47 47 47 47 47 47 47 46 45 44 45 45 45 45 44 44 43 42 40 40 39 40 40 40 40 41 41 41 41 42 42 43 45 46 47 49 50 52 53 52 52 51 51 50 49 48 47 46 46 46 46 45 45 44 43 43 42 41 41 41 41 41 40 40 40 39 39 38 38 37 36 36 35 34 33
48 47 47 46 46 46 46 47 47 46 45 45 45 44 45 45 45 44 44 44 44 44 44 44 44 44 45 45 45 44 43 43 43 43 43 43 43 43 43 42 41 40 39 39 40 41 41 42 42 42 42 42 42 43 43 46 47 50 52 54 56 56 56 56 57 57 56 55 54 53 52 52 51 50 49 48 47 46 46 45 45 45 44 44 43 43 42 41 40 39 39 38 38 37 36 36 35
45 45 44 43 43 43 42 42 41 39 38 38 37 36 35 33 31 30 29 28 28 27 27 27 27 27 27 27 27 27 27 28 28 28 28 28 29 29 29 29 29 29 30 30 31 33 34 36 37 38 39 40 40 41 41 43 44 46 48 51 55 58 59 59 61 62 62 62 61 59 58 57 55 54 53 51 51 50 49 48 48 47 46 45 44 44 43 42 42 41 40 39 38 38 37 37 36
43 42 39 37 35 33 30 28 25 23 21 20 18 17 15 14 12 11 11 11 10 10 10 10 10 10 10 10 10 10 10 10 10 11 11 11 11 11 11 12 12 12 12 13 13 14 16 17 19 21 23 25 27 30 32 34 37 39 41 44 48 52 56 60 63 66 69 70 70 69 68 66 64 62 61 59 57 55 53 52 50 49 48 47 46 45 44 43 42 42 41 40 39 38 38 37 37
35 29 25 21 18 15 13 11 10 9 9 10 10 11 12 13 14 12 12 13 15 14 13 12 13 13 12 12 12 12 12 12 12 11 12 11 11 11 11 11 11 11 10 9 8 7 7 6 6 7 7 9 10 12 15 18 22 25 28 31 34 39 44 51 58 65 71 76 80 81 80 78 75 73 71 68 65 62 60 58 55 54 52 51 49 48 47 46 45 44 43 42 41 40 39 39 39
17 13 11 10 10 11 11 12 13 15 17 20 22 24 27 30 29 27 26 27 30 30 28 27 27 26 26 26 25 25 25 25 25 24 24 23 23 22 21 21 20 20 19 17 16 14 13 12 11 10 10 10 11 10 11 12 13 16 20 24 27 29 32 37 42 50 58 66 72 77 80 82 82 81 80 78 75 72 69 67 64 62 60 58 57 55 53 51 50 49 47 46 44 43 42 42 41
10 11 14 16 20 23 25 26 27 30 32 34 35 36 39 42 42 41 41 42 43 44 43 41 40 38 37 37 38 38 39 41 42 41 40 38 37 35 33 32 31 30 31 29 29 27 24 23 23 23 24 26 26 26 27 27 27 30 34 36 38 40 42 45 46 48 50 53 56 61 66 71 77 80 83 85 83 81 79 76 73 71 69 67 65 63 61 59 56 54 52 50 49 47 46 45 44
21 24 28 30 33 37 38 39 41 42 44 45 45 46 48 49 50 50 51 51 51 51 51 50 48 47 46 44 44 43 44 45 47 49 50 50 50 49 48 45 43 42 41 41 42 41 38 35 32 32 33 35 38 41 46 49 51 53 55 55 58 63 67 70 72 72 68 65 59 57 58 60 65 68 73 78 79 79 80 79 78 76 75 73 71 70 67 65 63 60 58 55 53 50 49 48 46
33 36 40 42 44 47 48 50 51 52 53 54 54 54 54 55 56 57 57 58 57 56 56 57 56 55 55 54 53 52 49 47 46 46 48 50 51 53 54 54 53 52 50 50 49 50 50 48 44 41 40 39 40 43 48 55 59 62 63 65 70 76 82 85 89 92 91 89 83 78 76 72 70 69 71 75 74 72 74 75 74 74 75 75 73 72 71 70 67 64 62 59 56 53 52 50 49
44 48 51 52 53 54 55 55 55 56 56 57 57 58 57 57 57 57 59 60 61 63 64 66 67 66 64 64 63 62 60 57 54 50 48 47 48 49 51 54 56 57 58 58 57 56 55 55 53 51 50 47 45 44 45 49 54 57 59 63 68 75 81 86 91 95 96 97 99 101 101 96 92 88 86 87 83 78 78 77 75 74 73 73 71 68 67 66 65 63 62 60 58 56 54 52 52
54 55 56 55 55 55 54 53 53 54 56 56 57 60 63 63 61 60 60 60 62 65 68 70 72 72 71 71 70 69 68 68 65 62 59 56 52 51 51 53 56 59 62 63 63 63 62 60 58 57 56 55 53 51 49 49 49 50 51 53 57 62 68 73 81 86 86 87 92 100 105 103 102 99 98 98 94 89 88 87 84 82 79 76 72 67 62 59 57 57 57 57 57 56 55 54 53
54 54 55 54 54 55 55 54 53 53 53 53 54 57 61 63 60 59 59 58 58 58 60 62 63 65 67 68 69 69 69 69 69 68 67 65 61 58 55 54 56 59 62 64 66 67 67 67 65 63 61 59 58 56 55 54 53 52 50 49 50 51 53 56 61 67 69 71 75 82 88 91 94 97 97 98 97 94 92 90 89 88 86 83 78 72 65 59 56 54 54 55 54 55 55 54 54
52 53 54 55 56 56 55 53 50 50 49 48 49 50 54 56 53 53 54 52 52 51 52 52 52 54 55 57 60 62 64 65 66 65 65 64 63 62 61 59 58 59 61 64 66 68 70 70 70 69 67 65 62 60 58 58 57 55 54 53 52 50 49 49 49 50 52 54 58 61 64 68 74 80 84 86 87 88 87 87 88 86 83 80 77 73 67 64 60 58 58 57 55 55 54 53 53
54 55 56 56 55 54 53 53 50 48 47 46 45 45 48 48 45 45 45 44 45 45 45 45 44 44 44 46 48 50 52 54 55 56 56 56 57 59 60 62 62 62 63 64 65 68 70 71 73 73 72 71 67 65 63 61 60 58 56 55 54 53 52 51 50 49 48 47 48 49 49 49 52 56 59 63 65 68 70 71 74 74 72 69 66 63 61 61 60 60 61 60 58 57 55 54 53
55 53 51 49 48 47 46 46 45 43 41 40 38 38 40 41 40 39 39 39 39 39 39 39 39 39 39 39 40 41 42 43 44 45 46 47 48 50 52 55 59 61 62 62 62 64 66 69 71 73 75 75 73 70 67 64 63 61 60 58 57 55 54 53 52 51 50 49 47 47 46 44 43 43 43 45 46 48 49 50 52 55 56 55 54 52 52 54 55 56 57 58 57 55 54 53 51
45 42 40 38 37 37 37 37 37 37 35 34 34 33 34 35 34 33 33 32 32 31 30 30 30 29 29 29 29 30 31 32 33 34 35 37 38 39 42 45 47 51 53 54 56 56 57 59 61 64 67 70 73 73 72 69 66 63 61 59 58 57 55 54 53 52 52 50 49 48 48 47 45 44 42 42 42 42 41 40 41 42 44 44 44 44 44 46 47 49 52 53 52 50 49 48 47
37 36 35 34 33 32 32 30 29 28 27 26 24 23 23 23 22 22 22 22 21 21 20 20 19 19 18 19 19 19 19 19 20 21 22 23 24 25 27 29 31 34 37 40 44 46 48 49 51 52 54 56 59 63 66 67 66 65 63 61 58 57 56 54 53 53 51 50 50 48 48 48 47 46 44 44 43 43 42 41 40 40 40 40 40 39 39 39 40 42 45 48 47 46 45 44 44
33 31 29 27 25 24 22 21 20 19 19 18 17 16 16 16 17 17 17 18 18 17 17 17 17 17 16 16 16 16 16 16 15 16 16 16 16 17 17 18 19 20 21 23 26 29 32 35 38 41 43 46 47 49 52 54 56 56 57 57 55 55 54 54 53 52 51 50 49 49 48 48 48 47 46 45 44 45 45 44 43 43 42 41 41 40 40 39 39 40 41 43 43 42 43 42 42
22 21 20 19 18 18 18 17 18 18 18 19 19 19 18 19 19 20 20 20 20 19 19 19 19 19 19 19 19 18 17 17 17 16 16 16 15 15 15 15 15 15 15 16 16 17 19 20 22 25 28 31 34 37 39 42 44 46 47 48 48 48 48 48 48 49 49 48 48 48 47 47 47 47 47 45 45 45 46 46 45 45 45 44 44 43 43 42 41 41 42 43 44 42 42 42 41
18 18 18 18 18 18 19 19 20 21 23 23 23 23 24 24 24 25 25 24 24 23 22 22 22 22 21 21 21 20 20 19 19 19 18 17 16 16 15 15 15 15 14 14 14 15 15 15 16 16 17 19 21 22 24 27 30 33 36 38 39 40 41 42 42 43 43 43 43 43 43 44 44 45 46 45 45 45 46 46 46 46 46 46 46 46 45 45 44 45 45 46 46 45 44 43 42
19 20 20 21 22 22 22 22 22 23 25 26 26 27 27 28 29 29 29 28 27 26 25 25 24 24 23 22 22 22 21 21 20 19 18 17 17 16 16 16 15 15 16 16 15 15 15 15 15 15 15 15 16 16 17 17 18 20 21 24 26 28 31 34 36 38 39 39 39 39 39 39 39 40 41 41 41 43 45 46 46 45 45 46 47 47 46 47 47 48 49 50 49 48 46 45 44
21 21 22 23 24 25 25 25 25 25 26 28 28 29 30 30 31 32 31 30 29 28 26 26 26 25 25 24 24 24 23 22 21 19 18 17 16 16 15 15 14 14 14 15 15 16 16 16 17 17 17 17 17 16 16 16 16 16 16 16 17 18 19 21 24 27 29 32 33 35 36 36 37 37 37 37 36 37 40 42 42 42 42 44 46 46 46 47 48 50 52 53 52 51 48 47 45
24 25 26 27 27 28 29 28 29 27 28 29 29 30 32 33 34 33 32 32 30 28 26 27 26 25 26 26 26 26 25 23 22 21 20 19 18 17 16 15 15 14 13 13 13 13 14 14 15 15 16 17 18 18 18 18 18 17 17 16 15 15 15 15 16 18 19 21 23 26 28 29 31 32 33 34 34 34 35 37 38 38 37 39 42 43 42 42 44 48 51 54 54 53 51 48 46
29 29 30 31 30 31 31 31 31 29 29 30 29 31 34 37 41 41 39 39 35 31 29 28 27 26 27 27 26 25 25 23 23 22 21 20 19 18 17 16 15 15 14 13 13 12 12 13 13 13 13 13 14 15 16 17 18 19 19 18 18 17 16 15 15 15 16 16 17 18 20 21 22 24 25 26 28 29 30 32 34 35 35 36 37 38 37 36 37 40 44 48 51 52 51 48 46
34 33 33 33 32 32 34 35 35 33 33 35 34 36 39 41 48 51 50 47 40 35 34 31 30 29 28 26 25 24 24 23 23 22 21 19 18 17 16 15 14 14 13 13 12 12 12 11 11 11 11 11 11 11 12 13 14 15 17 17 18 18 18 18 17 16 16 15 15 15 16 17 18 19 20 20 21 21 22 24 26 28 30 32 34 35 35 33 32 33 35 38 42 44 45 43 42
39 39 37 37 36 34 35 35 38 37 38 40 38 38 43 45 51 59 60 55 48 43 40 37 37 36 33 30 29 28 27 26 25 23 21 19 17 16 15 14 13 12 11 11 10 10 10 10 10 9 9 9 9 9 9 10 10 11 12 13 14 15 16 16 17 17 17 17 17 16 16 15 16 16 17 17 18 18 18 18 19 20 21 23 26 28 29 29 29 30 31 32 34 34 35 35 34
42 42 39 39 39 38 37 36 38 39 40 42 38 36 39 41 46 53 54 51 48 46 42 41 41 39 38 37 35 34 32 29 27 24 22 21 19 18 17 15 13 11 11 10 9 8 8 8 7 7 7 7 7 7 7 7 8 8 9 9 10 11 12 13 14 14 14 15 17 17 17 17 16 16 16 16 16 16 17 17 17 17 17 18 19 20 21 21 22 23 25 27 29 29 30 29 29
41 41 41 40 40 40 40 39 39 39 40 39 35 31 30 30 33 37 38 39 38 37 37 38 38 37 37 38 37 36 33 29 26 24 23 22 20 19 18 16 14 13 12 10 9 8 6 6 5 5 5 5 5 5 5 6 6 6 7 7 8 8 9 10 10 11 11 12 13 14 16 17 17 17 17 17 16 16 16 16 15 15 16 16 16 17 17 16 16 16 18 19 21 22 23 24 25
41 40 40 40 40 40 40 39 38 37 39 38 34 30 26 28 33 33 34 34 31 29 30 31 32 32 33 34 33 31 29 26 24 24 23 22 20 18 17 17 16 14 12 10 8 6 5 5 4 4 4 4 4 4 4 4 4 5 5 5 6 6 7 7 8 8 9 9 10 11 12 14 15 16 16 16 17 17 16 16 15 14 15 15 15 16 15 15 14 13 14 14 15 15 15 16 19
41 40 40 39 39 39 39 39 38 38 43 49 48 38 27 29 36 35 33 32 28 27 29 29 29 30 31 30 28 26 24 23 22 22 22 21 19 18 17 16 15 13 11 9 7 6 6 5 4 4 4 3 3 3 3 3 4 4 4 4 4 5 5 5 6 6 7 7 8 8 9 10 12 13 14 15 15 16 17 16 16 15 14 13 14 14 15 14 13 12 12 12 13 12 12 12 13
41 41 40 40 40 40 40 39 41 43 51 63 63 46 29 27 33 35 31 27 24 24 25 24 25 25 24 23 20 19 18 17 17 17 16 16 15 14 14 12 11 10 8 7 7 6 5 5 4 4 3 3 3 3 3 3 3 3 3 3 3 4 4 4 5 5 6 6 6 7 8 8 9 10 12 13 13 14 15 16 16 15 14 13 12 12 13 13 12 12 11 11 11 11 11 11 12
43 42 42 42 41 41 41 39 38 39 46 60 61 45 31 27 29 30 25 20 18 18 17 17 17 16 16 15 14 13 12 11 11 11 11 10 10 9 8 7 6 6 5 5 5 5 5 4 4 4 3 3 3 3 3 3 3 3 3 3 3 3 3 4 4 4 5 5 6 6 7 7 8 8 9 11 12 12 13 14 14 15 14 13 12 11 11 11 11 10 9 9 9 9 10 10 11
45 43 42 41 39 38 37 35 33 32 38 52 54 41 32 30 28 23 17 14 14 14 14 14 14 14 14 13 12 11 9 9 8 8 8 7 6 6 5 4 4 4 4 4 3 3 4 3 3 3 3 3 3 3 3 3 3 3 3 3 3 3 3 3 3 3 4 4 5 5 5 6 7 8 9 9 10 11 11 12 12 13 13 13 13 12 11 10 10 9 8 7 7 8 8 8 9
46 42 38 36 35 35 35 33 31 30 33 42 42 31 27 35 37 25 17 17 17 17 18 17 16 15 14 13 11 9 7 7 7 6 6 5 4 4 4 3 3 3 3 3 3 2 2 2 3 3 3 3 3 3 3 3 3 3 3 3 3 3 3 3 3 3 3 3 4 4 5 5 5 6 7 9 10 10 10 10 10 11 11 12 12 12 11 10 9 8 7 6 7 7 7 7 8
43 41 37 34 32 31 31 30 28 26 28 36 39 32 32 44 43 27 21 22 19 19 19 17 15 14 12 10 8 6 5 5 5 4 4 3 3 3 3 3 2 3 3 2 2 2 2 2 2 2 2 2 2 2 2 3 3 3 3 2 3 3 2 3 3 3 3 3 3 3 4 4 5 5 5 7 9 9 10 10 10 10 10 10 11 11 10 10 10 9 8 7 6 6 6 7 7
42 42 37 33 30 27 26 25 22 19 22 29 34 34 40 46 37 22 21 21 16 17 17 14 12 11 8 6 5 5 5 5 4 3 3 2 2 2 2 2 2 2 2 2 2 2 2 2 2 2 2 2 2 2 2 2 2 2 2 2 2 2 2 2 2 2 2 3 3 3 3 3 4 4 5 5 6 8 9 9 9 9 10 10 10 10 9 9 9 9 9 8 7 6 6 6 6
42 42 38 35 34 32 28 26 23 19 19 22 24 27 37 40 28 18 20 18 14 15 14 11 9 8 7 5 5 5 5 5 4 3 3 3 2 2 2 2 2 2 2 2 2 2 2 2 2 2 2 2 2 2 2 2 2 2 2 2 2 2 2 2 2 2 2 2 2 2 3 3 3 3 4 4 5 6 7 8 9 9 9 9 9 9 9 8 8 8 8 8 7 7 6 6 6
44 45 42 39 39 38 34 30 27 22 19 19 20 25 38 41 29 20 19 15 13 12 9 8 7 7 6 5 5 5 4 4 3 3 3 3 2 2 2 2 2 2 2 2 2 2 2 2 2 2 2 2 2 2 2 2 2 2 2 2 2 2 2 2 2 2 2 2 2 2 2 2 3 3 3 4 4 4 5 6 7 7 8 9 9 9 9 9 9 8 8 7 7 7 6 6 6
52 51 47 41 40 42 39 30 25 21 17 18 20 24 35 39 27 17 15 12 12 10 7 6 6 5 5 4 4 4 3 3 2 3 3 2 3 2 2 2 2 2 2 2 2 2 2 2 2 2 2 2 2 2 2 2 2 2 2 2 2 2 2 2 2 2 2 2 2 2 3 2 2 2 2 3 3 3 4 4 5 5 6 7 7 8 9 9 9 8 8 7 7 7 6 6 6
57 53 49 45 40 39 38 28 20 17 14 16 18 21 33 36 22 13 13 12 12 9 6 6 4 4 4 3 3 3 3 3 2 3 2 2 3 2 2 2 2 2 2 2 2 2 2 2 2 2 2 2 2 2 2 2 2 2 2 2 2 2 2 2 2 2 2 2 2 2 2 2 3 2 2 3 3 3 3 3 4 4 4 5 5 6 6 7 8 8 8 8 7 8 7 7 7
56 51 47 48 43 37 36 31 24 18 14 14 14 18 33 34 18 12 13 12 11 8 5 5 3 3 3 3 3 2 2 3 2 2 2 2 2 2 2 2 2 2 2 2 2 2 2 2 2 2 2 2 2 2 2 2 2 2 2 2 2 2 3 2 2 2 2 2 2 2 2 2 2 2 2 2 2 3 3 3 3 3 3 4 4 4 4 5 6 6 7 7 7 7 7 7 7
57 55 46 45 44 37 36 34 27 19 15 14 9 13 32 32 16 13 14 11 9 6 4 4 3 3 4 3 3 2 2 2 2 2 2 2 2 2 2 2 2 2 2 2 2 2 2 2 2 2 2 2 2 2 2 2 2 2 2 2 2 2 3 3 3 2 2 2 2 2 2 2 2 2 2 2 2 3 2 2 3 2 3 3 3 4 4 4 4 5 5 6 6 6 6 7 7
65 66 52 44 41 34 30 29 27 22 19 16 9 12 30 32 17 12 12 9 7 5 3 3 3 3 4 3 2 2 2 2 2 2 2 2 2 2 2 2 2 2 2 2 2 2 2 2 2 2 2 2 2 2 2 2 2 2 2 2 2 2 2 2 3 3 2 3 2 2 2 2 2 2 2 2 2 2 2 2 3 2 3 3 3 3 3 3 4 4 4 5 5 5 5 6 6
63 67 56 45 39 31 26 22 21 21 22 20 13 14 29 32 20 14 12 8 6 4 3 3 3 4 3 3 3 2 2 2 2 2 2 2 2 2 2 2 2 2 2 2 2 2 2 2 2 2 2 2 2 2 2 2 2 2 2 2 2 2 2 2 3 2 2 3 2 3 3 2 3 2 2 2 2 2 2 2 2 3 3 3 3 3 3 3 3 3 4 4 4 4 5 5 5
Wind_Speed
39 40 41 42 43 44 47 49 50 53 56 59 61 62 62 65 66 66 68 68 68 69 71 72 72 73 74 73 74 75 77 78 78 76 74 75 75 74 76 76 75 75 76 76 76 76 75 75 74 73 73 72 72 72 72 72 72 73 73 73 73 73 73 73 74 74 74 74 74 74 75 75 75 74 74 74 74 75 75 75 76 76 77 77 78 77 77 78 78 78 79 78 78 78 78 79 79
40 41 42 42 43 44 45 47 49 53 55 58 61 60 60 63 63 64 65 65 66 68 69 71 71 73 74 75 75 76 78 79 78 76 74 75 75 75 75 76 76 76 76 76 76 77 76 76 75 75 74 74 74 73 73 74 74 74 74 75 75 75 75 75 76 76 76 76 75 76 76 76 75 75 75 75 75 75 75 76 76 77 77 79 79 79 79 79 79 79 80 80 80 80 80 81 81
41 42 43 43 44 45 46 48 49 51 52 57 60 59 59 62 62 62 63 65 66 67 68 69 71 72 74 75 76 76 78 79 78 76 73 74 75 75 76 77 79 78 78 78 78 78 78 78 77 76 75 75 75 75 75 75 76 76 76 76 76 77 77 77 77 77 77 77 77 76 77 76 77 77 76 76 77 77 77 77 77 77 78 79 79 80 80 80 80 81 81 81 81 81 81 82 82
43 43 44 44 45 46 47 48 50 51 51 56 58 57 58 60 61 62 64 65 66 67 68 69 70 72 73 74 76 76 77 78 77 76 73 73 75 75 77 79 81 81 80 81 80 81 81 80 80 79 78 77 78 78 78 78 78 78 78 79 79 79 78 79 79 79 79 79 79 79 79 79 79 79 79 79 79 79 79 79 79 79 79 80 80 81 81 81 81 82 82 82 83 83 83 84 84
45 45 45 46 46 47 49 49 51 52 53 55 57 57 57 57 59 61 64 65 66 68 68 70 70 70 72 73 74 75 76 76 75 76 74 73 75 76 78 80 82 82 82 82 82 82 82 82 81 80 80 80 81 81 81 82 82 82 82 82 82 82 82 82 81 81 81 82 82 82 82 82 82 82 82 82 82 82 82 82 83 82 82 83 83 83 83 83 83 84 84 84 85 85 85 86 86
48 48 48 48 48 49 50 51 53 54 55 56 57 58 57 57 59 61 63 64 66 68 68 68 68 69 71 73 73 74 75 74 74 76 75 74 75 77 78 80 82 82 83 83 83 83 83 84 83 81 81 82 82 83 83 84 84 83 84 84 84 84 84 84 84 84 84 84 85 85 85 85 85 85 85 85 85 85 85 85 85 85 85 85 85 86 86 86 86 86 86 87 87 87 87 87 88
49 50 51 51 51 52 53 53 55 56 56 57 58 58 58 58 60 62 63 65 66 67 67 67 67 68 70 72 74 74 74 74 74 76 76 76 76 77 78 80 81 82 82 83 84 84 84 85 84 83 82 83 83 83 84 84 84 84 85 85 85 85 85 85 85 85 86 86 86 86 87 87 87 87 86 86 86 86 86 86 85 85 86 86 86 86 87 87 88 88 89 89 89 89 89 89 89
51 52 53 53 54 55 56 56 58 58 58 59 60 59 60 60 61 63 65 67 67 67 68 67 67 67 68 71 73 74 74 74 74 75 77 77 77 77 78 79 80 81 81 82 83 83 84 85 85 84 83 84 84 84 84 84 85 85 85 86 86 86 86 86 86 86 86 86 86 86 87 87 87 87 87 86 86 86 86 86 86 86 85 85 85 85 86 86 87 88 88 89 89 90 90 90 90
52 53 54 54 55 57 58 59 60 61 60 62 62 62 62 62 63 65 67 68 68 68 68 68 67 68 69 70 73 74 74 75 75 75 76 77 77 77 78 79 80 80 81 81 82 82 83 85 85 84 84 84 85 85 85 85 85 85 86 86 86 86 86 86 86 86 86 86 86 86 86 86 86 86 86 86 86 86 86 86 86 86 85 85 85 85 85 85 85 86 86 87 88 88 89 89 89
53 54 55 55 56 57 59 60 61 62 62 63 63 63 64 64 66 67 68 69 70 70 70 70 69 69 70 71 74 75 75 76 77 77 77 78 78 78 79 80 80 81 81 82 82 82 83 85 85 84 84 84 85 85 85 85 86 86 86 86 86 86 87 87 87 87 87 87 87 87 87 87 87 86 86 86 86 86 86 86 86 85 85 85 85 85 85 85 85 85 85 86 86 87 88 88 88
53 54 55 56 57 59 59 61 62 63 64 64 64 64 66 66 68 68 69 71 72 71 71 71 71 71 73 74 76 78 78 78 79 80 79 80 81 81 82 83 83 84 84 84 85 85 86 87 87 87 86 86 86 86 86 87 87 87 87 87 88 88 88 88 88 88 88 88 88 88 88 88 88 88 87 87 87 87 87 87 87 87 87 86 86 86 86 85 86 86 86 86 86 87 88 89 88
53 54 55 57 58 60 60 62 63 64 65 65 65 66 69 69 70 70 71 73 74 74 73 74 74 74 76 77 80 80 79 80 83 84 83 84 85 86 87 87 88 88 88 89 89 90 90 90 91 90 90 89 90 90 90 90 90 90 90 90 90 91 91 91 91 91 92 92 91 91 91 91 90 90 90 90 90 90 89 89 89 89 89 89 88 88 88 88 87 87 87 87 87 88 88 89 89
53 54 56 57 59 60 61 63 64 66 67 67 67 69 71 72 72 72 73 75 76 77 76 77 78 79 80 80 83 84 80 84 89 88 88 89 90 91 91 92 92 92 92 93 93 93 94 94 94 94 94 94 93 94 93 93 93 93 93 93 93 93 94 94 94 94 94 95 95 94 94 94 94 94 93 93 93 93 92 92 92 92 92 91 91 91 90 90 89 88 88 88 88 88 89 90 90
55 56 57 59 61 61 62 64 65 68 70 69 71 72 73 73 74 74 76 77 78 79 80 80 82 83 84 83 85 87 86 88 92 92 92 94 94 95 96 96 96 97 96 97 97 97 98 98 98 98 98 98 97 97 97 97 97 96 96 96 96 96 96 96 96 96 96 97 97 96 96 96 96 96 96 96 96 95 95 94 94 94 94 93 93 92 92 91 91 90 89 89 89 89 89 90 91
58 59 60 61 63 64 65 66 67 70 72 73 74 74 75 75 76 77 78 80 81 82 83 84 85 86 87 87 88 90 92 92 94 95 96 97 98 99 100 100 101 101 101 100 101 101 101 102 102 102 102 102 101 101 100 100 99 99 98 98 97 97 97 97 97 98 98 98 98 97 97 97 97 97 97 97 96 96 96 96 95 95 95 95 94 93 93 92 92 91 90 90 90 89 90 90 91
61 62 64 65 66 67 68 70 72 74 75 76 77 77 78 78 80 81 82 83 85 86 87 87 88 89 90 91 91 93 94 95 96 98 99 100 101 102 103 104 104 105 105 104 104 104 105 105 105 106 106 106 105 105 104 103 103 102 101 100 99 99 99 98 98 99 99 99 98 98 98 98 98 98 99 98 98 98 98 97 97 96 96 95 95 94 94 93 93 92 92 91 91 91 91 91 92
64 65 67 69 70 71 71 73 75 76 77 77 79 79 78 79 80 81 82 82 83 84 85 86 86 86 87 89 89 90 92 93 95 96 98 99 100 101 102 103 104 104 105 105 105 106 106 107 108 108 108 108 108 108 108 108 107 106 104 102 101 100 100 100 99 99 99 99 99 99 99 99 100 100 100 100 99 99 99 98 98 97 97 97 96 95 95 94 94 94 93 93 92 92 92 92 93
67 69 70 71 71 71 72 72 73 74 75 74 73 73 72 72 73 75 76 73 73 76 76 77 76 76 77 79 80 81 82 84 85 87 88 90 91 92 93 94 95 96 97 98 99 100 102 103 104 105 106 107 107 107 108 108 108 108 107 106 104 102 101 100 99 99 98 98 98 98 98 98 98 98 98 99 99 99 99 98 98 98 98 97 97 96 96 95 95 95 94 93 93 93 93 93 94
69 69 68 67 66 66 66 66 66 66 65 64 63 62 61 61 63 65 66 62 62 65 65 65 65 65 66 68 69 70 71 73 74 75 77 78 80 81 82 83 84 84 85 86 88 89 90 92 94 95 97 99 99 100 101 102 103 104 105 105 105 104 103 101 100 99 98 97 97 97 96 97 96 96 96 97 97 97 97 97 97 97 96 96 96 96 96 95 95 94 94 93 93 93 93 93 94
64 63 61 60 58 57 57 57 56 56 55 55 54 54 52 53 56 58 58 56 55 57 59 59 58 59 59 61 62 63 64 65 66 67 69 71 72 73 74 75 75 76 76 77 78 79 80 82 84 85 87 89 90 91 92 94 95 95 97 98 99 101 101 102 102 101 100 99 99 98 97 96 96 95 95 95 95 95 95 95 95 94 94 94 94 94 94 94 94 93 93 93 93 93 93 93 94
56 54 53 52 50 50 51 51 50 50 50 51 52 51 50 51 54 55 56 55 55 56 58 59 59 59 59 59 60 61 61 62 63 64 65 67 68 69 70 70 71 72 72 72 72 73 74 76 77 79 80 81 83 84 85 86 87 88 89 91 92 94 95 96 98 99 99 100 100 100 99 98 97 97 95 95 95 94 94 93 93 93 93 93 93 93 93 93 93 93 93 93 93 93 93 93 94
48 48 47 47 47 48 49 49 48 49 50 51 53 53 52 54 55 56 58 58 59 60 60 61 62 63 63 63 63 64 64 64 65 65 66 67 68 69 70 70 71 71 71 71 71 71 72 73 74 75 77 78 79 80 81 82 83 84 85 86 87 88 89 91 92 94 95 96 98 98 99 99 99 99 97 97 97 96 95 95 94 93 93 93 93 93 93 93 94 93 94 94 94 93 93 93 94
45 46 46 46 47 48 49 50 50 51 52 54 55 56 56 57 59 60 61 62 64 65 65 66 66 67 68 68 69 69 69 70 70 70 70 71 71 72 72 73 73 73 73 74 74 73 73 73 74 75 76 77 79 79 80 81 82 83 84 85 85 86 87 89 90 91 92 93 95 95 95 96 97 97 97 97 98 98 97 97 96 95 95 95 95 95 95 95 95 94 94 94 94 94 94 94 94
45 46 47 49 50 52 53 53 54 55 56 58 59 60 61 62 63 64 65 66 67 68 69 70 71 71 72 73 73 74 74 75 75 75 75 75 76 76 76 76 76 76 77 77 78 78 78 77 77 76 77 78 79 80 81 82 83 84 85 85 86 87 88 89 90 91 92 93 93 93 94 95 95 96 95 95 97 97 96 97 97 97 97 97 97 97 97 96 96 96 95 95 95 95 95 95 95
48 49 51 52 54 56 57 58 59 59 60 62 63 64 65 67 68 69 70 71 71 72 73 74 75 76 77 77 78 79 79 80 80 80 80 80 81 81 81 81 81 81 81 81 81 82 82 82 82 81 81 81 82 82 83 83 84 86 86 87 87 88 89 90 91 92 93 94 94 94 95 96 97 96 96 96 97 97 96 97 97 97 97 98 98 98 98 97 97 96 96 96 96 96 96 96 96
51 53 55 56 58 60 62 63 63 64 65 66 68 68 69 72 73 74 75 76 77 77 78 79 80 80 81 82 82 83 84 84 85 85 85 86 86 86 86 86 86 86 86 86 86 86 87 87 87 86 86 86 86 86 86 86 87 87 88 88 89 89 90 91 92 94 95 95 95 96 97 98 98 98 98 98 98 98 98 98 98 99 99 99 99 99 99 98 97 96 96 97 97 97 97 97 96
56 57 59 60 62 64 66 68 68 69 70 71 72 73 74 77 78 79 80 81 82 83 83 84 84 85 85 86 87 88 88 89 90 90 90 91 91 91 91 90 90 91 91 91 92 92 92 92 92 92 92 91 91 91 91 91 91 91 91 91 91 92 92 92 93 94 95 96 96 97 98 99 100 100 100 100 100 100 100 100 101 101 101 100 100 99 99 98 97 97 96 97 97 97 97 98 98
60 62 63 65 66 68 70 72 73 74 74 75 76 77 78 81 82 82 84 85 86 87 87 88 89 89 89 90 91 91 92 94 94 95 95 96 96 96 96 95 95 96 96 96 97 97 98 98 98 98 97 97 97 96 96 96 96 96 95 95 95 95 95 95 95 95 95 96 96 96 97 98 99 100 100 101 101 101 102 102 102 102 102 101 100 100 99 98 98 97 97 97 98 98 98 99 99
65 66 67 68 69 71 73 74 76 77 78 78 79 79 79 82 85 86 87 88 89 89 90 91 92 92 92 92 93 94 95 96 97 98 99 99 100 100 100 100 100 101 101 101 101 102 102 103 103 103 103 103 102 102 101 101 101 101 100 100 100 100 99 99 98 98 98 98 97 96 97 97 98 98 99 99 100 100 100 101 101 101 102 101 101 100 99 99 99 98 98 98 99 99 100 100 101
67 69 70 71 72 73 75 76 78 80 81 81 82 81 81 83 85 87 88 90 90 91 92 92 93 93 94 94 94 95 95 96 97 98 99 100 101 102 102 103 104 105 105 106 106 106 106 107 107 108 108 108 108 108 107 107 106 106 105 105 105 104 104 103 103 102 102 102 101 100 99 99 99 98 98 97 98 98 98 98 98 99 100 100 100 99 99 98 99 98 98 99 100 100 101 102 102
70 72 73 74 75 75 76 77 78 80 81 82 82 82 81 81 83 85 86 88 90 91 91 92 92 93 93 94 94 95 95 96 97 97 98 100 100 101 102 103 104 105 106 107 108 109 110 110 111 111 112 112 112 113 113 112 112 111 111 110 110 109 108 108 107 107 107 106 105 104 103 102 102 101 100 99 98 98 98 98 97 97 98 98 98 98 98 97 98 98 98 100 101 101 102 103 103
71 72 73 75 75 76 77 77 78 78 79 81 82 82 81 82 83 84 85 87 88 89 90 91 92 93 93 94 95 95 96 96 97 98 99 99 100 101 102 103 104 105 105 106 108 109 110 111 112 113 114 115 116 116 117 117 116 116 116 115 114 114 113 112 112 112 111 110 109 108 107 107 106 106 105 103 102 101 101 100 99 99 98 98 97 97 97 97 96 97 98 99 101 102 103 103 103
70 70 71 73 74 74 75 76 77 77 78 79 80 81 82 82 83 85 86 87 87 88 89 90 91 92 93 94 95 96 96 97 98 98 99 100 101 101 102 103 104 105 105 106 107 108 109 110 111 112 114 115 117 118 119 119 120 120 120 120 119 118 117 117 116 116 116 115 114 113 112 111 110 110 109 108 106 105 105 105 104 103 101 100 99 99 98 98 97 97 97 99 101 103 103 103 103
68 69 70 71 73 73 73 74 75 76 77 78 79 81 82 84 85 86 87 88 88 89 90 90 91 92 93 94 95 96 97 98 99 99 100 100 100 101 101 102 103 104 105 106 107 108 109 110 111 112 112 114 115 117 118 120 121 122 122 123 122 122 121 120 120 120 120 119 118 118 117 116 115 114 114 113 111 110 109 109 108 107 106 104 103 102 101 100 99 99 99 101 103 104 104 104 104
66 67 67 69 71 73 73 73 74 75 77 79 80 81 83 85 87 89 90 91 91 92 92 93 93 94 95 95 97 98 99 100 100 100 100 100 100 100 100 100 100 101 103 104 105 106 107 108 110 111 112 113 114 115 117 118 120 121 122 123 124 124 123 123 123 123 122 122 122 121 121 120 119 118 118 117 116 114 114 114 113 112 110 109 108 107 105 104 103 103 104 105 106 107 107 106 106
64 65 66 68 70 73 74 75 75 75 76 79 80 81 82 84 86 88 89 90 91 92 92 93 94 94 95 96 98 99 100 101 101 101 101 101 101 101 101 100 100 99 99 100 102 102 104 105 106 108 110 112 113 115 116 117 119 120 121 122 123 123 123 123 123 124 124 124 124 124 124 123 123 122 122 121 120 119 118 118 118 117 115 114 112 112 110 109 109 108 108 109 110 110 110 110 109
64 65 66 67 68 70 71 72 73 73 73 75 76 77 80 81 83 85 87 89 90 90 90 91 92 93 94 96 97 99 100 100 101 101 102 102 102 102 101 101 100 99 99 99 99 99 100 101 102 103 105 107 109 112 113 115 117 118 119 121 122 122 122 122 122 122 123 124 125 125 125 126 125 125 125 124 124 123 122 121 122 121 120 118 117 117 116 114 113 113 113 113 114 115 115 114 114
63 63 64 65 66 67 69 70 71 71 71 73 73 74 78 80 83 86 87 89 90 89 90 91 92 93 95 96 97 98 99 100 101 102 102 102 102 102 101 101 100 100 99 99 98 98 98 99 100 100 101 102 104 106 108 111 113 115 117 119 120 121 121 121 121 120 121 121 122 123 124 125 126 126 127 127 127 126 125 124 124 125 124 123 122 121 121 119 118 117 117 117 118 119 119 118 117
63 64 64 65 66 66 67 69 71 72 73 74 73 74 77 80 82 86 88 90 91 91 92 93 94 95 96 97 98 99 100 101 102 103 103 103 102 102 101 101 100 99 99 98 98 98 99 99 99 100 100 101 102 103 104 106 108 110 112 114 116 118 119 120 120 120 120 120 120 121 121 122 123 124 126 127 127 127 127 127 127 127 127 126 126 126 125 124 122 121 120 121 121 122 123 122 121
63 65 65 66 68 68 68 69 71 74 75 76 75 75 77 80 82 85 89 91 92 93 94 95 96 98 99 100 101 102 103 104 104 105 104 104 104 103 103 102 101 100 99 99 99 99 99 100 100 100 101 101 102 103 103 105 106 107 108 110 112 114 115 117 119 119 120 120 120 121 120 120 121 122 123 124 125 126 126 127 127 127 128 128 128 129 129 128 126 124 124 124 124 125 125 124 123
62 63 65 65 67 69 70 70 70 73 75 77 78 76 76 79 82 84 87 90 91 93 94 95 97 98 100 101 103 104 105 106 106 106 106 106 106 106 106 106 105 104 103 102 101 101 100 100 100 100 101 101 102 102 103 104 105 106 107 108 109 111 112 114 116 117 118 118 118 120 121 121 121 121 122 122 123 123 124 125 125 125 126 127 128 129 130 130 129 128 128 127 127 127 127 126 125
60 61 63 65 66 67 69 70 70 71 74 76 78 78 75 76 81 83 84 87 89 91 92 94 96 97 98 100 102 104 105 106 106 105 106 106 107 107 107 108 108 107 106 106 105 103 102 101 100 100 99 99 100 101 102 103 104 105 106 107 108 109 110 112 113 114 115 115 115 117 118 120 121 121 122 122 123 123 124 124 124 124 124 125 126 127 128 129 129 128 128 129 129 129 129 127 126
60 61 63 65 67 68 69 70 71 71 74 77 80 80 77 76 82 85 85 87 89 89 91 91 93 95 96 99 101 102 103 103 104 104 105 106 106 106 106 107 108 109 109 108 107 105 104 102 101 100 99 98 97 98 99 100 102 103 104 105 106 107 108 109 111 112 113 113 113 114 115 116 118 120 120 121 122 123 123 124 124 124 124 124 125 125 126 127 127 127 126 126 127 128 128 127 127
60 62 64 66 68 69 70 71 73 75 77 81 84 85 81 76 81 87 86 88 89 88 90 90 91 93 95 97 99 99 100 100 100 100 101 102 103 104 104 106 107 109 109 109 108 107 106 106 104 102 100 98 97 97 97 97 99 100 101 103 104 105 106 107 108 109 110 111 111 111 112 113 114 116 118 119 120 121 122 123 124 124 124 124 124 124 125 126 127 126 125 124 124 125 125 124 125
62 64 66 69 70 71 73 73 75 77 79 83 86 89 86 79 81 88 88 87 87 87 88 88 89 90 91 93 94 95 95 95 94 95 95 96 97 99 101 103 105 106 107 107 107 107 107 107 106 105 103 100 98 97 96 96 96 97 97 99 100 101 103 104 105 106 108 108 109 109 110 110 112 113 115 116 117 119 120 121 122 123 124 124 124 123 123 124 126 126 125 123 123 123 122 121 122
66 67 69 71 72 73 74 74 75 75 77 81 85 87 88 84 82 87 88 87 86 86 87 87 87 88 89 90 91 92 92 91 90 90 90 91 93 95 98 101 102 102 102 103 104 105 106 106 106 105 105 103 101 99 97 96 96 96 95 95 95 95 98 100 101 103 104 106 107 108 108 109 110 111 112 113 114 116 117 118 119 121 122 122 123 123 122 122 124 125 124 123 122 121 120 119 120
70 71 70 71 72 73 74 75 74 74 75 79 83 84 85 87 86 84 85 85 86 87 87 87 87 87 88 89 90 90 89 87 86 86 87 89 91 93 96 98 99 98 98 98 99 100 101 102 102 102 103 103 103 101 100 99 98 97 96 95 94 92 93 94 96 98 100 102 104 105 106 108 108 109 110 111 113 114 115 116 117 118 119 120 121 121 121 121 122 123 123 121 120 119 118 118 117
73 73 73 72 72 73 75 76 75 75 75 78 82 81 81 87 88 84 82 83 85 86 88 88 86 85 86 87 87 86 85 83 82 83 85 87 89 90 91 94 94 94 93 93 93 93 94 94 94 94 95 97 98 98 98 99 98 97 96 95 93 92 92 92 92 93 95 97 98 100 102 104 106 106 107 109 111 112 113 114 114 115 116 117 118 119 120 120 120 121 121 119 117 117 116 115 114
76 76 76 75 74 73 73 75 74 72 74 78 83 82 81 85 86 83 80 81 81 82 85 86 84 83 83 84 84 82 81 80 81 82 84 84 85 85 86 87 87 87 88 88 88 88 88 87 87 86 87 87 88 89 91 92 93 94 94 93 92 91 90 90 90 91 92 93 93 94 96 98 101 102 104 106 108 110 111 112 112 113 114 115 116 117 118 119 119 119 119 118 117 115 114 113 112
79 80 80 80 79 77 76 77 75 71 72 77 82 85 87 88 85 81 80 81 79 79 83 83 81 82 82 81 81 81 80 81 82 83 84 83 83 83 83 82 82 81 81 81 81 81 81 82 82 81 81 81 80 81 82 83 85 87 88 90 90 89 88 87 87 88 89 90 90 89 90 93 95 97 99 101 104 106 108 109 110 111 112 113 114 116 116 117 117 117 117 117 116 115 113 112 111
82 84 85 85 86 85 83 83 83 79 75 76 80 84 90 95 90 83 83 83 80 79 81 80 78 81 82 80 81 82 81 81 82 83 83 83 83 82 81 79 77 76 75 74 73 72 73 74 75 75 74 74 74 74 75 76 78 79 81 84 86 87 86 85 84 84 85 86 86 86 86 88 90 92 94 97 99 102 104 105 107 107 108 110 112 113 114 115 116 116 116 116 115 115 113 111 110
85 87 88 88 89 89 88 87 88 86 81 79 81 84 90 96 93 86 83 82 81 82 81 79 79 80 80 77 77 79 79 78 79 79 79 79 80 80 78 75 73 71 69 68 67 66 66 67 68 68 68 67 68 68 69 70 71 73 75 77 79 81 82 82 82 81 81 82 83 83 84 85 85 86 89 92 94 97 100 101 103 104 105 107 108 110 111 113 113 114 114 114 114 114 113 111 109
87 89 90 90 91 91 91 88 86 85 83 81 83 86 91 97 94 86 84 85 86 86 84 81 80 79 77 75 74 75 76 75 75 74 74 74 75 75 73 70 67 65 64 63 62 62 62 63 63 63 62 62 62 62 63 64 66 68 69 71 72 74 75 77 78 78 78 78 79 80 81 82 82 83 84 86 89 91 94 96 98 100 102 104 105 106 108 109 111 111 111 111 111 112 112 110 109
87 89 90 91 91 92 93 93 88 84 82 81 82 87 95 101 95 88 87 89 91 90 86 83 80 76 75 74 73 73 72 71 70 69 69 69 70 70 68 65 62 60 58 58 59 59 59 59 59 60 59 58 58 57 58 59 60 62 64 65 67 68 69 71 72 74 74 75 76 76 77 78 79 80 80 81 83 85 88 90 93 95 97 99 101 102 104 105 107 108 108 108 109 109 109 109 108
88 90 91 92 93 93 95 97 95 89 85 81 78 83 96 103 95 90 91 92 93 90 85 81 77 75 74 73 72 70 69 67 66 64 64 65 67 67 64 60 58 56 55 55 56 57 57 57 56 56 56 55 55 54 55 55 56 57 59 61 62 63 65 66 67 69 70 71 72 73 73 74 75 76 76 77 78 80 82 84 86 88 91 93 95 97 99 100 102 103 103 104 105 106 107 107 106
89 91 92 92 93 94 95 98 99 95 90 84 76 78 94 103 96 91 93 92 92 89 82 77 74 73 75 75 72 67 64 65 63 61 60 61 64 66 63 59 55 54 54 54 54 54 54 54 54 54 53 53 53 52 52 53 53 54 55 57 58 59 61 62 64 65 66 67 69 70 70 71 72 73 73 74 75 76 77 79 80 82 84 86 88 90 93 95 96 97 98 100 101 102 104 104 105
89 91 93 93 93 94 95 96 99 99 97 92 83 81 94 104 99 93 94 93 91 87 81 76 73 72 73 74 72 67 62 62 62 60 59 59 61 63 64 61 56 53 52 51 52 52 51 51 50 51 51 51 51 51 51 51 51 51 52 53 54 56 58 59 60 62 62 64 65 66 67 68 69 70 70 71 73 73 75 75 76 78 80 81 83 85 87 89 90 91 93 94 96 99 100 101 102
88 89 91 93 93 94 96 95 95 98 100 97 90 87 94 104 104 100 98 95 91 86 80 75 73 73 72 72 71 68 63 61 60 59 58 58 58 60 61 61 58 55 52 51 51 50 49 48 47 47 48 49 49 50 50 50 50 50 50 50 51 53 54 56 57 58 59 60 62 63 65 66 67 68 68 69 70 71 72 73 73 74 76 78 80 81 83 84 85 86 88 90 92 95 96 98 100
Wind_Direction
263 263 262 261 261 260 259 258 257 256 255 255 256 256 256 256 257 257 257 257 257 257 258 258 257 258 258 257 258 258 258 258 257 257 258 259 259 260 261 262 261 261 261 261 261 260 260 259 259 258 258 257 256 256 255 255 254 253 253 253 253 253 253 252 252 253 253 253 253 253 252 253 253 253 253 253 252 252 252 252 251 252 253 253 253 253 253 253 253 253 254 254 254 253 253 253 253
263 263 263 263 263 263 262 261 259 257 257 257 257 257 258 258 258 258 258 258 258 258 258 258 258 258 258 258 258 258 258 258 258 258 258 259 260 260 261 262 262 261 261 261 261 261 261 260 260 259 259 258 258 257 256 256 255 254 254 254 254 254 254 254 254 254 254 254 254 254 254 254 254 253 253 253 253 253 253 252 252 252 252 253 253 253 253 253 253 253 254 254 254 254 254 254 254
263 263 263 263 264 264 263 262 261 260 259 259 258 259 259 259 259 259 259 259 259 258 258 258 258 258 258 258 258 258 259 259 260 260 259 259 260 261 261 261 261 260 260 260 259 259 260 260 260 260 260 260 260 259 259 258 257 257 256 256 255 255 255 255 255 254 254 254 254 254 254 255 255 254 254 254 254 254 254 254 253 253 252 253 253 253 253 253 253 253 253 253 254 254 254 255 255
265 264 264 263 263 263 263 263 263 262 261 260 260 261 260 260 261 261 260 260 260 260 259 259 259 259 259 259 259 259 259 260 261 262 261 261 261 261 261 260 260 260 259 259 258 258 258 258 259 259 260 259 259 260 260 259 259 259 259 258 258 257 257 256 256 256 256 255 255 255 255 255 255 255 255 255 255 255 255 255 255 254 254 253 253 253 253 253 253 253 253 253 253 253 254 254 255
267 266 265 265 264 263 263 263 263 263 262 261 262 262 262 263 263 262 261 261 261 260 260 259 260 260 261 261 261 262 262 262 263 264 263 262 262 261 261 260 260 260 260 260 259 259 259 259 259 259 259 258 258 258 258 259 259 259 259 259 259 259 258 258 257 257 257 257 256 256 256 255 255 255 255 255 255 255 255 255 255 255 255 254 254 254 254 254 254 254 254 254 254 254 254 254 255
269 268 267 266 266 265 265 265 264 264 263 263 263 264 264 264 263 262 262 261 260 260 260 260 261 262 263 263 263 263 264 264 264 264 264 263 262 261 261 261 261 261 261 261 261 261 261 261 261 260 260 259 258 258 258 258 258 259 259 259 258 258 258 257 257 257 257 256 256 256 256 256 255 255 255 255 255 255 255 255 255 255 255 255 255 255 255 255 254 254 254 254 254 254 254 255 255
271 270 270 269 268 267 267 266 266 266 266 265 265 266 265 265 264 264 263 262 261 262 263 263 263 264 264 265 265 265 265 265 265 265 264 263 262 262 261 261 262 262 262 262 262 262 262 262 262 262 261 261 260 260 259 259 259 258 258 258 258 258 258 257 257 257 256 256 256 256 256 256 256 256 256 256 256 256 256 256 256 256 256 256 256 256 256 256 255 255 255 255 255 256 255 255 255
273 272 272 271 270 269 269 268 268 268 268 268 267 267 267 266 266 266 265 265 265 266 266 266 266 266 266 266 267 267 267 266 265 264 265 264 264 263 263 263 263 263 263 264 264 264 264 263 263 263 263 262 262 261 261 260 260 260 259 259 259 259 258 258 258 258 257 257 257 256 256 256 256 256 256 257 257 257 257 257 257 257 257 257 256 256 256 256 257 257 257 257 257 257 256 256 256
275 275 274 273 272 271 271 270 269 269 269 269 269 269 268 268 267 267 268 268 268 268 268 268 268 267 267 268 268 268 268 267 266 265 265 266 266 266 265 265 265 265 264 265 265 264 264 264 264 264 263 263 263 263 262 262 261 261 260 260 259 259 259 258 258 258 258 258 257 257 257 257 257 257 257 257 257 257 258 258 258 258 258 258 257 257 257 257 257 258 258 258 258 258 257 257 257
277 276 275 274 273 272 272 272 271 271 270 270 270 270 270 270 269 269 269 269 269 269 269 268 268 268 268 267 268 268 268 268 268 267 267 267 267 267 266 266 265 265 265 265 264 264 264 264 264 264 263 263 263 263 263 262 262 262 262 261 261 261 260 260 259 259 259 258 258 258 258 258 258 258 258 258 258 258 258 258 258 258 258 258 258 258 258 258 258 258 258 259 259 259 259 258 257
278 277 276 275 274 273 273 273 272 272 271 270 270 271 270 269 269 269 269 269 269 269 269 269 268 268 268 267 266 267 267 268 268 268 267 267 266 266 265 265 264 264 264 264 263 263 263 263 263 263 263 263 263 263 263 263 263 263 262 262 262 262 262 262 262 261 261 261 260 260 260 259 259 259 259 259 258 258 258 258 259 259 259 259 259 259 259 259 259 259 259 259 259 259 259 259 259
278 277 276 275 274 274 273 273 273 272 271 271 271 270 269 268 267 268 268 268 269 268 268 269 268 267 267 267 266 265 267 268 267 266 265 265 264 264 263 263 263 263 263 263 263 262 262 263 263 263 263 263 263 263 263 263 263 263 263 263 263 263 263 263 263 263 262 262 262 262 261 261 261 261 261 260 260 260 260 260 260 260 260 260 260 260 260 260 260 260 260 260 259 260 260 260 259
278 277 276 275 274 274 274 273 273 273 272 271 270 269 269 268 268 268 268 268 268 268 268 268 268 267 267 267 267 266 266 267 266 265 265 264 264 263 263 262 262 262 262 262 262 262 262 262 262 262 262 262 262 263 263 263 263 263 263 263 263 263 263 263 263 263 263 263 263 263 262 262 262 262 262 262 261 261 261 261 261 261 261 261 261 261 261 261 261 260 260 260 260 259 259 259 259
278 277 276 276 275 274 274 273 273 273 272 271 270 269 269 270 270 269 269 269 269 269 269 268 268 267 267 267 267 267 266 265 266 266 266 265 265 264 263 263 262 262 262 262 262 262 262 262 262 262 261 261 261 261 261 261 261 262 262 262 262 262 262 263 263 263 263 263 263 263 263 263 263 262 262 262 262 262 262 262 262 262 262 262 261 261 261 261 261 260 260 259 259 258 258 258 258
278 277 276 275 274 274 273 273 272 272 271 271 271 270 270 270 270 269 269 269 268 268 268 268 267 267 267 267 266 267 266 265 265 266 266 266 265 265 264 264 263 262 262 262 262 262 262 262 262 262 261 261 261 260 260 260 260 260 260 261 261 261 261 261 261 261 261 261 261 261 261 261 261 261 261 261 261 261 261 261 261 261 261 261 261 261 260 260 260 259 258 258 257 257 256 256 256
278 277 276 275 275 274 274 273 273 272 272 272 272 272 271 271 271 270 269 268 268 268 267 267 266 267 267 266 266 266 266 265 265 265 265 265 265 265 265 264 264 263 263 262 262 262 262 262 262 262 262 261 261 260 260 260 260 260 260 260 260 260 260 260 259 259 259 259 259 259 259 259 259 259 259 259 259 259 259 260 260 259 260 260 260 259 259 259 259 258 257 257 256 256 255 255 255
279 278 277 277 276 276 275 275 274 273 273 272 273 273 273 272 272 271 269 269 268 268 267 267 267 267 266 266 265 265 265 265 265 265 265 265 265 265 265 265 265 264 264 263 263 263 262 262 262 262 262 262 262 261 261 260 260 260 259 259 259 259 259 259 258 258 258 258 258 258 258 257 257 257 257 258 258 258 258 258 258 258 258 258 258 258 258 258 257 257 256 256 255 255 255 254 254
280 279 278 278 277 276 275 274 274 273 273 273 273 273 273 272 272 271 270 269 269 268 268 267 267 266 266 266 265 265 264 264 264 265 265 265 265 265 265 265 265 265 265 264 264 263 263 262 262 262 262 262 262 262 261 261 261 260 260 259 259 258 258 258 258 258 257 257 257 257 257 256 256 256 256 256 256 256 256 256 256 257 257 257 257 257 256 256 256 256 255 255 255 254 254 254 253
281 280 279 278 277 275 274 273 273 273 273 273 273 272 272 272 271 270 270 270 270 269 269 268 267 266 265 265 265 265 265 264 264 264 265 265 265 265 265 265 266 265 265 264 263 263 262 262 262 261 261 261 261 261 261 261 260 260 260 259 258 258 257 257 256 256 256 256 256 255 255 255 255 255 255 255 255 255 255 255 255 256 256 256 255 255 255 255 254 254 254 254 254 253 253 253 252
281 280 279 277 276 274 273 272 272 272 273 273 272 272 272 272 272 272 273 272 271 271 270 269 268 266 266 265 265 265 265 265 265 265 265 265 265 265 265 265 265 265 265 264 263 262 261 261 261 261 261 261 261 260 260 260 259 259 259 259 258 258 257 256 256 255 255 255 254 254 254 254 254 254 254 254 254 254 254 254 254 254 254 254 254 254 254 253 253 253 253 253 252 252 252 252 251
280 279 278 276 276 274 274 273 273 274 274 274 273 273 273 273 274 275 276 275 274 274 273 273 272 270 268 267 266 266 265 265 266 265 266 266 266 266 266 266 266 266 265 265 264 263 262 261 260 260 260 260 260 259 259 259 258 258 258 257 257 257 257 257 257 256 256 255 255 254 254 254 253 253 253 253 253 253 253 253 253 252 252 252 252 252 252 252 252 252 252 252 252 251 251 251 250
279 278 277 277 276 276 276 276 277 277 277 277 277 278 277 277 278 278 278 278 278 277 277 277 276 276 274 273 271 270 268 267 267 267 267 267 267 267 268 268 267 267 267 266 266 265 263 262 261 261 260 260 259 259 258 258 257 257 256 256 256 256 256 256 256 256 256 256 256 255 255 255 254 254 253 253 253 253 252 252 252 252 251 251 251 251 252 252 252 252 252 251 251 251 250 250 250
279 279 279 279 279 279 279 280 280 281 281 281 281 281 281 281 280 280 280 280 280 279 279 279 278 278 277 276 275 274 273 271 270 269 269 269 268 268 268 269 269 269 269 269 268 267 266 264 263 262 262 261 261 260 259 258 258 257 256 255 255 255 255 255 255 255 255 255 256 256 256 256 255 255 254 254 254 253 253 253 253 252 252 252 252 252 252 252 252 252 251 251 251 250 249 249 249
281 282 282 282 282 282 282 283 283 283 283 282 282 282 282 282 281 280 279 279 279 279 278 278 277 277 276 276 276 275 275 274 273 272 271 271 270 270 269 269 269 269 269 269 269 269 268 267 265 264 263 263 262 262 261 260 259 258 257 256 255 255 254 254 254 254 253 254 254 255 255 255 255 255 255 254 254 254 254 254 254 253 253 253 253 253 253 253 252 252 252 251 251 250 249 249 248
284 284 284 285 285 285 285 285 284 284 284 283 283 283 283 282 281 280 280 279 278 278 277 276 276 276 275 275 275 274 274 274 274 273 273 272 271 271 271 270 270 269 269 268 268 268 268 267 267 266 265 264 263 263 262 262 261 260 259 258 257 256 255 255 254 254 253 253 253 253 253 253 254 254 254 253 254 254 254 254 254 254 254 254 254 255 254 254 253 253 252 252 251 250 250 249 248
286 286 286 286 286 286 286 286 286 285 285 284 284 283 283 282 281 281 280 280 279 278 277 276 276 275 275 274 274 274 273 273 272 272 272 272 271 271 271 271 270 270 269 269 268 267 267 266 266 266 265 265 264 263 263 262 262 262 261 260 259 258 257 256 255 255 255 254 253 253 253 253 253 253 253 253 253 253 253 253 253 253 254 254 254 255 255 254 254 253 252 252 251 251 250 250 249
288 288 288 288 288 288 288 287 287 287 286 286 285 285 284 283 282 282 281 280 280 279 278 278 277 276 275 275 274 274 273 273 272 272 271 271 271 270 270 270 269 269 269 269 268 267 267 266 265 265 264 264 264 263 263 262 262 262 262 261 261 260 259 258 257 257 256 256 255 254 254 254 254 254 254 253 253 253 253 253 253 253 254 253 253 253 253 253 253 252 252 251 251 250 250 250 249
290 289 289 289 289 289 288 288 288 287 286 285 285 284 284 283 282 282 281 280 279 279 278 278 277 276 275 275 274 274 273 273 273 272 272 271 271 270 269 269 268 268 267 267 267 267 266 266 265 264 264 263 263 262 262 262 262 262 261 261 261 261 260 260 259 259 258 258 257 256 256 256 255 255 255 255 254 254 254 254 254 254 254 254 253 253 252 252 252 251 251 250 250 250 250 249 249
291 290 289 289 288 288 287 286 286 285 284 284 283 283 282 282 282 282 281 280 279 278 277 277 276 276 275 274 274 273 273 272 272 272 272 271 271 270 270 269 268 267 266 266 265 265 265 265 265 264 264 263 263 262 262 261 261 261 261 261 261 261 261 260 260 260 259 259 258 258 257 257 257 257 256 256 256 255 255 255 255 255 255 254 254 253 253 252 252 251 251 251 250 250 249 249 248
290 289 288 288 287 286 285 285 285 284 284 284 283 283 282 282 282 282 282 281 280 280 279 278 278 277 277 276 275 274 273 272 272 271 271 271 270 270 269 269 268 267 266 266 265 265 264 264 264 264 264 263 263 263 262 262 261 261 260 260 260 260 260 260 260 260 260 260 260 259 258 258 258 258 257 257 257 256 256 256 255 255 255 255 255 254 254 253 253 252 252 251 251 250 250 249 249
290 290 290 289 289 288 287 287 287 287 287 287 287 286 285 284 283 283 283 282 282 282 281 281 280 280 279 278 277 276 275 274 273 272 271 271 270 269 268 268 267 266 266 266 266 265 265 264 264 264 264 264 263 263 262 262 262 261 261 261 260 260 260 260 260 260 260 260 260 260 259 259 259 259 258 258 257 257 257 256 256 255 255 255 255 255 255 254 254 253 253 252 252 252 251 251 251
292 292 292 292 292 292 291 291 291 291 291 291 291 290 289 288 287 286 285 284 284 283 283 283 282 281 281 280 279 278 277 275 274 273 272 271 270 269 269 268 267 267 266 266 265 265 265 264 264 264 264 264 264 264 263 263 262 262 262 261 261 261 261 260 260 260 260 260 260 259 259 259 259 259 259 258 258 257 257 257 257 256 255 255 255 255 255 255 254 254 254 253 253 253 253 252 252
294 294 294 294 294 294 294 295 294 294 294 293 293 293 292 291 290 289 288 287 286 285 285 284 284 283 282 281 281 280 279 278 276 275 274 273 271 270 270 269 268 268 267 266 265 265 264 264 264 263 263 263 263 263 263 263 263 263 262 262 261 261 261 261 261 261 261 260 260 260 259 259 259 259 259 259 258 258 258 258 257 257 256 256 255 255 255 254 254 254 254 254 254 254 253 253 253
297 297 297 297 297 297 297 297 297 297 297 296 296 295 295 294 293 292 291 290 289 288 287 286 286 285 284 284 283 282 281 280 279 278 276 275 274 273 271 270 269 269 268 267 266 265 265 264 264 263 263 262 262 262 263 263 263 263 262 262 262 261 261 261 261 261 261 261 261 261 260 260 260 259 259 259 259 258 258 258 258 257 257 256 256 255 255 255 254 254 254 254 254 254 254 254 254
300 300 301 301 301 300 300 299 299 299 298 297 297 296 295 294 293 293 292 291 290 289 289 288 288 287 287 286 285 284 283 282 281 280 279 278 277 276 275 273 272 270 269 268 267 266 266 265 264 264 263 263 262 262 262 262 262 262 262 262 262 261 261 261 260 260 261 261 261 261 261 261 261 260 260 260 259 259 258 258 258 258 257 256 256 256 255 255 255 254 254 254 254 254 254 254 255
304 304 304 304 302 301 301 300 300 300 298 297 296 295 294 293 292 291 291 290 290 289 289 289 288 288 287 286 285 284 284 283 283 282 282 281 280 279 278 277 275 274 272 271 270 269 267 266 265 264 264 263 263 263 262 262 261 261 261 261 261 261 260 260 260 260 260 260 260 261 261 261 261 261 261 260 260 260 259 259 259 258 258 257 257 256 256 255 255 254 254 254 254 255 255 255 255
307 307 305 304 303 302 301 301 300 299 298 297 297 296 295 294 293 293 292 291 291 291 291 290 289 289 288 286 286 285 285 284 284 284 283 283 282 281 280 279 279 278 276 275 273 272 270 269 267 265 264 263 262 262 262 261 261 261 261 261 261 260 260 259 259 259 259 259 259 260 260 260 261 261 261 261 261 260 260 259 259 259 259 258 258 257 256 256 255 255 254 255 255 255 255 255 255
308 308 307 305 305 304 304 303 302 302 301 300 300 300 298 297 296 295 294 293 293 293 292 291 290 289 288 287 287 286 286 286 285 285 284 283 283 282 282 281 281 280 279 278 276 275 273 271 269 267 265 264 262 261 260 259 259 260 260 260 260 260 260 259 259 258 258 257 257 258 258 259 259 260 260 260 261 261 260 260 260 260 260 259 259 258 258 257 256 255 255 255 255 255 255 255 255
311 311 311 310 309 309 308 307 306 306 305 303 303 301 299 298 296 295 294 293 293 293 292 292 291 290 290 289 289 289 288 287 286 286 285 285 285 284 284 283 283 282 280 279 278 276 274 273 271 269 266 265 263 261 259 258 257 257 257 258 258 258 258 258 258 257 257 257 256 256 256 256 257 257 258 258 259 259 260 259 259 259 260 259 259 259 258 258 257 256 256 255 255 255 256 256 256
316 315 315 314 313 312 311 310 309 308 306 304 303 301 299 297 295 293 292 292 292 292 292 292 291 291 291 291 290 290 289 288 288 288 288 288 288 287 287 286 285 284 282 280 278 276 274 272 270 268 266 264 262 261 259 258 257 256 255 255 255 256 256 256 256 256 255 255 255 255 255 255 255 255 255 256 256 257 257 258 258 258 258 259 259 259 259 258 258 257 257 256 256 256 256 256 256
319 318 317 316 315 314 313 312 311 309 307 304 303 301 299 297 295 292 291 291 291 291 291 291 290 290 290 290 289 289 288 288 288 289 289 289 289 289 288 288 287 285 284 282 280 278 275 273 270 268 266 264 263 261 260 259 258 257 256 255 254 254 254 255 255 254 254 253 253 253 254 254 254 254 254 254 254 255 255 256 256 256 256 257 257 257 257 257 257 257 257 256 256 256 256 256 256
321 320 319 318 317 315 314 313 312 310 307 304 303 301 300 299 297 294 294 292 291 291 291 291 290 290 289 288 288 287 287 288 288 289 289 289 288 288 287 287 286 285 284 283 281 279 276 274 272 270 268 266 264 263 262 261 259 258 257 256 255 255 254 254 254 254 254 253 252 251 252 252 252 252 253 253 253 253 254 254 254 254 254 255 255 255 256 256 256 256 255 256 256 256 256 256 256
323 322 320 319 318 317 316 315 313 311 309 306 304 303 303 304 301 299 298 296 294 294 293 292 292 291 290 289 288 288 288 288 288 288 288 288 287 287 286 286 285 284 283 281 280 279 278 277 275 273 271 269 268 266 264 262 261 260 259 258 257 256 255 254 254 254 254 253 252 251 251 251 251 251 251 252 252 253 253 253 253 253 253 253 253 254 255 255 255 255 255 255 255 255 255 255 256
325 323 322 321 320 319 318 317 315 314 312 310 308 306 307 307 304 301 299 298 298 297 296 295 294 293 291 290 289 289 288 288 288 287 286 286 285 285 284 282 281 281 280 280 280 280 280 279 278 277 275 273 271 269 267 265 263 261 260 258 257 257 256 255 254 254 254 254 253 252 251 250 250 250 251 250 251 251 252 252 253 253 253 252 252 252 253 254 255 255 254 254 254 254 254 255 255
327 326 325 324 324 322 321 320 318 316 314 311 309 309 309 310 307 303 301 300 299 298 297 296 294 293 292 291 290 289 288 288 287 286 286 285 284 282 280 279 278 278 279 279 279 279 279 279 278 278 277 276 274 272 270 268 266 264 262 260 258 257 257 256 255 254 254 254 253 252 252 250 249 249 249 250 250 250 250 251 251 252 253 253 253 252 252 253 253 254 254 254 254 254 254 254 254
330 329 328 327 326 324 322 321 319 317 315 312 310 311 312 311 308 304 303 302 301 299 298 297 296 295 295 293 292 291 290 290 289 288 287 285 282 280 279 278 278 278 278 277 277 277 277 276 276 276 277 276 276 275 273 271 269 268 266 264 261 259 258 257 255 254 254 253 253 252 251 250 250 249 249 249 249 249 249 249 250 251 252 253 253 253 253 252 253 253 254 254 253 253 253 253 253
331 331 330 329 328 326 324 322 321 320 318 314 312 313 313 311 308 306 305 304 304 303 302 301 300 299 298 296 295 293 293 292 292 290 288 285 283 281 280 280 280 279 278 277 276 275 275 274 274 274 274 275 275 275 274 273 271 270 268 267 265 263 261 259 257 256 254 253 253 252 251 250 249 249 248 249 249 249 249 249 249 249 250 251 253 253 254 253 253 254 254 254 253 253 253 253 252
331 331 331 331 330 328 326 324 324 323 321 317 315 316 315 311 309 309 308 307 307 306 304 303 301 301 299 298 296 296 295 295 293 290 287 284 282 282 281 281 281 281 280 279 278 277 276 275 274 273 273 272 272 272 272 272 272 271 270 268 267 265 264 262 260 258 257 255 253 252 252 251 250 249 248 248 248 249 249 249 249 249 250 250 251 252 253 254 254 255 255 255 254 254 254 253 253
332 332 332 332 331 330 328 326 325 325 325 322 319 319 316 312 311 312 311 309 307 307 305 303 304 303 301 300 299 298 298 297 294 290 287 285 284 283 282 282 282 282 282 282 281 281 280 279 278 276 274 273 272 271 270 270 270 270 270 269 268 266 264 263 262 261 259 258 255 253 252 252 252 250 248 247 248 248 249 249 249 249 250 250 250 251 252 253 254 254 255 256 255 255 254 254 253
334 333 333 333 333 333 332 330 328 328 330 327 323 321 318 314 313 314 313 312 311 309 307 305 307 306 304 304 305 304 303 301 297 293 291 290 289 288 287 286 285 284 284 283 283 282 282 281 280 278 277 275 274 272 271 269 268 268 268 268 268 267 265 263 262 261 260 259 258 256 254 253 252 251 250 248 248 248 249 249 249 249 249 250 250 251 251 252 252 253 254 255 255 255 255 254 253
335 334 334 335 334 334 335 333 331 332 333 331 328 325 321 317 317 319 318 316 314 311 309 309 311 311 310 311 310 307 304 300 296 294 293 293 292 290 289 289 288 288 287 286 285 283 282 281 279 279 277 276 275 274 272 270 269 267 266 266 266 266 266 264 262 261 260 260 259 258 256 254 252 251 251 250 248 248 248 249 249 249 249 250 250 251 251 252 252 252 253 254 254 255 255 254 253
336 335 335 335 335 334 335 334 332 332 334 335 332 328 323 319 319 321 320 317 316 313 312 314 316 315 313 312 308 304 300 296 294 294 294 294 293 292 292 291 291 291 290 289 287 285 283 281 280 279 278 277 276 275 273 272 270 268 267 266 265 265 266 266 265 263 261 260 259 259 258 256 254 252 251 250 249 248 248 248 248 249 249 249 250 250 251 252 252 253 253 253 253 254 254 253 252
336 335 335 336 336 334 333 333 333 334 336 337 334 330 325 321 321 323 322 321 320 317 317 319 319 317 314 311 306 301 298 297 297 297 296 295 294 293 293 294 294 293 292 291 289 287 285 283 282 280 279 278 276 275 273 272 271 269 268 267 266 266 265 265 265 264 263 262 260 259 258 257 256 254 252 250 250 249 248 248 248 248 248 248 248 249 250 251 252 253 253 253 253 254 254 253 253
335 335 335 336 336 335 333 333 335 337 338 339 336 333 328 324 325 327 325 324 322 320 320 322 320 318 315 311 306 302 301 302 301 300 299 298 296 295 295 296 296 295 294 292 290 288 286 284 283 281 280 279 277 276 274 272 271 270 269 268 267 266 265 264 264 263 263 262 261 259 258 258 257 256 254 252 251 250 249 248 248 248 248 248 248 248 248 249 250 251 252 253 253 253 253 253 253
336 337 337 336 335 336 334 333 335 338 339 340 338 336 331 326 327 328 326 325 322 320 323 323 322 320 316 311 307 306 307 306 304 303 302 301 299 298 298 299 299 298 297 294 292 290 288 286 284 283 282 280 279 277 275 273 272 270 269 268 267 266 265 264 263 262 262 262 261 260 259 258 257 257 256 255 253 252 251 250 249 248 248 248 248 248 248 248 249 250 250 251 252 252 253 253 252
338 337 337 337 336 336 335 334 335 337 339 340 339 340 334 328 328 329 326 324 322 322 325 325 325 323 317 312 311 311 312 309 307 307 306 304 303 302 302 302 302 301 299 296 293 291 289 288 287 285 284 282 281 279 277 275 273 271 270 269 267 266 265 264 263 262 261 261 261 261 260 259 258 258 257 256 255 254 252 251 251 250 249 248 248 248 248 248 248 249 249 250 250 251 251 251 251
338 336 336 337 337 337 336 336 335 336 339 341 340 342 338 329 328 328 326 325 325 326 328 328 327 324 318 315 315 315 315 313 312 311 309 307 306 305 305 305 305 303 300 297 294 291 289 287 286 285 284 283 282 281 279 277 275 273 271 270 269 267 266 265 264 263 262 261 261 261 261 260 259 259 258 257 256 255 254 253 252 251 251 250 249 249 248 248 248 248 249 249 249 249 250 250 250
338 336 336 337 337 338 338 338 338 338 339 340 340 342 339 331 328 329 328 327 328 328 330 331 329 324 320 318 318 318 318 316 314 312 310 309 307 306 306 306 307 306 303 300 297 294 292 290 287 286 284 284 282 281 280 278 276 274 272 271 270 269 268 266 265 264 263 262 261 261 261 261 260 259 259 258 257 256 255 254 253 252 251 251 250 249 249 248 248 248 248 248 248 248 248 249 249